Location: Brno
(49.2000°N, 16.6330°E)
Time: 19:07:21
(UTC+02:00)

S-56A Canister/Altair - All Passes

Search period start: 28 July 2021 00:00
Search period end: 07 August 2021 00:00
Orbit: 631 x 2501 km, 38.9° (Epoch: 27 July)

Date Brightness Start Highest point End Pass type
(mag) Time Alt. Az. Time Alt. Az. Time Alt. Az.
28 Jul - 00:13:36 10° WSW 00:18:46 14° SW 00:23:17 10° SSW visible
28 Jul - 15:17:03 10° SSW 15:28:05 28° SE 15:39:37 10° E daylight
28 Jul - 17:18:52 10° SW 17:32:42 49° SSE 17:45:51 10° E daylight
28 Jul - 19:23:45 10° WSW 19:38:15 55° S 19:50:21 10° ESE daylight
28 Jul - 21:30:10 10° W 21:43:07 41° SSW 21:53:09 10° SE visible
28 Jul - 23:38:53 10° W 23:46:05 17° SW 23:52:08 10° SSW visible
29 Jul - 14:44:42 10° S 14:54:56 26° SE 15:05:55 10° E daylight
29 Jul - 16:45:50 10° SW 16:59:17 47° SSE 17:12:39 10° E daylight
29 Jul - 18:50:18 10° WSW 19:04:49 56° S 19:17:30 10° ESE daylight
29 Jul - 20:56:27 10° W 21:09:58 44° SSW 21:20:40 10° SE visible
29 Jul - 23:04:32 10° W 23:13:19 21° SW 23:20:34 10° S visible
30 Jul - 14:12:31 10° S 14:21:51 23° SE 14:32:02 10° E daylight
30 Jul - 16:12:54 10° SW 16:25:54 44° SSE 16:39:22 10° E daylight
30 Jul - 18:16:57 10° WSW 18:31:22 56° S 18:44:32 10° ESE daylight
30 Jul - 20:22:49 10° W 20:36:43 47° SSW 20:48:05 10° SE daylight
30 Jul - 22:30:23 10° W 22:40:27 24° SW 22:48:43 10° S visible
31 Jul - 13:40:35 10° S 13:48:50 20° SE 13:57:56 10° E daylight
31 Jul - 15:40:05 10° SW 15:52:32 42° SSE 16:05:58 10° E daylight
31 Jul - 17:43:42 10° WSW 17:57:53 56° S 18:11:28 10° ESE daylight
31 Jul - 19:49:15 10° W 20:03:24 49° SSW 20:15:25 10° SE daylight
31 Jul - 21:56:23 10° W 22:07:31 28° SW 22:16:41 10° S visible
01 Aug - 13:08:58 10° SSE 13:15:54 17° SE 13:23:33 10° E daylight
01 Aug - 15:07:24 10° SSW 15:19:14 39° SSE 15:32:28 10° E daylight
01 Aug - 17:10:32 10° WSW 17:24:24 55° S 17:38:18 10° E daylight
01 Aug - 19:15:46 10° W 19:30:02 52° SSW 19:42:37 10° SE daylight
01 Aug - 21:22:31 10° W 21:34:29 31° SW 21:44:28 10° SSE visible
02 Aug - 12:37:51 10° SSE 12:43:02 13° SE 12:48:40 10° ESE daylight
02 Aug - 14:34:51 10° SSW 14:46:00 36° SSE 14:58:53 10° E daylight
02 Aug - 16:37:29 10° WSW 16:50:55 54° S 17:05:04 10° E daylight
02 Aug - 18:42:22 10° W 18:56:36 53° SSW 19:09:45 10° ESE daylight
02 Aug - 20:48:45 10° W 21:01:23 35° SW 21:12:07 10° SSE visible
02 Aug - 22:59:54 10° WSW 23:04:08 12° SW 23:08:05 10° SW visible
03 Aug - 12:08:19 10° SE 12:10:15 10° ESE 12:12:16 10° ESE daylight
03 Aug - 14:02:25 10° SSW 14:12:51 33° SE 14:25:10 10° E daylight
03 Aug - 16:04:32 10° WSW 16:17:28 52° SSE 16:31:43 10° E daylight
03 Aug - 18:09:04 10° W 18:23:09 55° S 18:36:44 10° ESE daylight
03 Aug - 20:15:06 10° W 20:28:10 38° SSW 20:39:37 10° SSE daylight
03 Aug - 22:24:35 10° W 22:31:19 15° SW 22:37:27 10° SSW visible
04 Aug - 13:30:08 10° SSW 13:39:46 29° SE 13:51:22 10° E daylight
04 Aug - 15:31:41 10° SW 15:44:04 50° SSE 15:58:17 10° E daylight
04 Aug - 17:35:51 10° WSW 17:49:40 55° S 18:03:39 10° ESE daylight
04 Aug - 19:41:32 10° W 19:54:55 41° SSW 20:07:00 10° SE daylight
04 Aug - 21:49:59 10° W 21:58:26 18° SW 22:06:02 10° SSW visible
05 Aug - 12:58:00 10° S 13:06:47 26° SE 13:17:26 10° E daylight
05 Aug - 14:58:57 10° SW 15:10:43 48° SSE 15:24:46 10° E daylight
05 Aug - 17:02:44 10° WSW 17:16:10 56° S 17:30:28 10° ESE daylight
05 Aug - 19:08:05 10° W 19:21:35 43° SSW 19:34:16 10° SE daylight
05 Aug - 21:15:46 10° W 21:25:28 21° SW 21:34:14 10° S visible
06 Aug - 12:26:03 10° S 12:33:52 23° SE 12:43:22 10° E daylight
06 Aug - 14:26:18 10° SW 14:37:26 45° SSE 14:51:10 10° E daylight
06 Aug - 16:29:42 10° WSW 16:42:42 56° S 16:57:09 10° ESE daylight
06 Aug - 18:34:44 10° W 18:48:13 46° SSW 19:01:25 10° SE daylight
06 Aug - 20:41:47 10° W 20:52:25 24° SW 21:02:12 10° S visible
